Tracking 19176 objects as of 25-May-2018
HD Live streaming from Space Station
objects crossing your sky now

IRIDIUM 33 DEB

Track IRIDIUM 33 DEB now!
10-day predictions


NORAD ID: 33869
Int'l Code: 1997-051AN
Perigee: 718.2 km
Apogee: 811.6 km
Inclination: 86.4 °
Period: 100.0 minutes
Semi major axis: 7135 km
RCS: 0.08 m2 (small)
Launch date: September 14, 1997
Source: United States (US)
Launch site: TYURATAM MISSILE AND SPACE COMPLEX (TTMTR)

Note: This is SATELLITE DEBRIS
aabbcc
Your satellite tracking list
Your tracking list is empty




NASA's NSSDC Master Catalog

Two Line Element Set (TLE):
1 33869U 97051AN  18144.50265120 +.00002774 +00000-0 +84950-3 0  9999
2 33869 086.3653 155.6907 0065430 328.9317 030.8018 14.40225854482689
Source of the keplerian elements: AFSPC